FENGYUN 1C DEB, 46451

Orbit data source: Space-Track

FENGYUN 1C DEB, 46451 is space debris in SSO originally from a launch on Mon, 10 May 1999 UTC launched from the Taiyaun Space Center, China (TSC). Fengyun 1C debris stems from the Chinese weather satellite Fengyun-1C, which was intentionally destroyed by a Chinese anti-satellite missile in 2007. This event dramatically increased the amount of space debris, with thousands of trackable fragments posing hazards to satellites and human spaceflight. The Fengyun 1C debris cloud has become a focal point in discussions about space sustainability and the need for international regulations to prevent the creation of new debris.

Loading next visibility...
Identifier
46451, 1999-025EZG
Orbit
SSO
Country
Flag of CNCN / PRC
Related business
Manufacturer
Unknown
Mission
Spacecraft
Bus & Motor
Unknown
Mass
Unknown
Launch date (UTC)
1999-05-10 (27 years ago)
Launch vehicle
Unknown
Launch site
Taiyaun Space Center, China (TSC)
Object type
Payload
Rocket body
Debris
Shape & HBR
Unknown shape, 0.1 m
Radar Cross Section
Small (<0.1 m²)

Expand to show TLE details & history
Last TLE update: 6 days ago

TLE from 6 days ago
0 FENGYUN 1C DEB
1 46451U 99025EZG 26167.79935758  .00005033  00000-0  19619-2 0  9999
2 46451  98.1407 177.9260 0165163   0.8152 180.5587 14.22885921596502
Epoch: 2026-06-16T19:11Z
TLE epoch observation values (Epoch: 2026-06-16T19:11:04.494Z)
Latitude
-1.46661°
Longitude
164.88232°
Altitude
937.581 km
Speed
7.322 km/s
True Right ascension
23h 50m 52s
True Declination
-1° 27' 29"
Sunlit
Object was in daylight at epoch
Visualization orbit readout
Latitude
Unknown
Longitude
Unknown
Altitude
Unknown
Speed
Unknown
Apparent Right ascension
Unknown
Apparent Declination
Unknown
Sunlit
N/A
Visualization observer readout
Local Sidereal Time
21:35:13
Azimuth
Unknown
Elevation
Unknown
Doppler factor
Unknown
Orbital elements
Apogee altitude
931.503 km
Perigee altitude
693.97 km
Semi-major axis
7,190.873 km
Eccentricity
0.01652
Inclination
98.1407°
RAAN
177.926°
Arg. of periapsis
0.8152°
True anomaly
180.54062°
Mean anomaly
180.5587°
Eccentric anomaly
180.54962°
Mean motion
3.55935 °/min
Orbital period
101.14 mins
BSTAR
0.0019619
Loading maneuver chart data...
Computing Atmospheric mass density...
Loading historical data...
Loading historical data...
Loading historical data...
Loading historical data...
Loading historical data...
Loading historical data...
Loading historical data...

Documentation

Showing up to 5 results
|